Wind_Speed
10 10 18 21 22 14 10 10 8 7 6 9 16 18 18 14 15 21 21 12 11 12 16 23 26 28 31 33 38 40 40 38 37 37 36 31 29 27 26 24 23 22 20 19
6 24 17 13 9 19 20 17 13 11 8 7 11 19 17 17 18 17 20 19 14 10 7 13 22 30 31 37 39 40 41 41 40 41 38 35 32 29 27 25 23 21 20 19
23 5 19 13 16 16 14 14 6 5 6 8 7 17 18 17 16 16 15 16 18 16 16 16 20 28 34 32 36 41 43 43 42 43 38 34 31 28 25 26 25 23 20 18
16 21 7 19 23 15 19 14 18 14 9 6 8 9 14 18 17 19 21 17 21 22 21 19 20 28 32 36 37 39 43 44 44 45 42 41 33 29 28 29 26 24 20 19
11 13 22 13 20 18 14 9 11 12 15 9 8 8 8 7 14 22 26 23 24 24 23 20 21 34 36 37 40 40 42 43 46 47 46 43 36 32 32 28 27 24 21 18
18 6 13 25 12 12 3 6 2 5 9 12 13 11 17 10 25 19 21 23 22 23 22 20 26 28 29 30 33 38 40 39 46 47 45 44 40 35 34 29 28 26 23 20
6 13 3 6 12 11 11 6 4 5 6 10 11 13 22 13 21 21 20 20 23 21 18 18 20 21 31 35 35 35 38 36 43 44 45 43 40 38 38 35 32 29 26 22
16 10 15 8 20 9 12 17 4 6 5 4 6 11 15 18 23 7 12 10 17 22 22 24 24 28 33 35 36 38 39 37 41 42 42 42 39 38 38 37 34 30 26 22
6 9 2 10 12 19 7 15 18 5 2 2 4 7 11 8 8 14 20 14 18 23 24 25 26 33 37 37 38 39 39 37 39 40 42 41 39 37 38 36 33 28 23 20
4 4 7 2 7 14 14 7 8 8 7 10 5 6 9 5 16 15 11 17 17 20 20 20 21 27 37 40 39 38 39 42 43 40 44 42 39 36 35 34 31 28 23 20
5 6 2 6 7 13 10 14 8 3 9 4 1 5 6 8 5 7 7 11 16 22 21 21 20 30 37 40 41 39 38 37 38 42 43 42 38 34 33 34 31 27 23 19
7 3 8 8 3 13 20 21 19 6 5 10 3 7 3 1 6 5 8 8 10 16 20 22 23 26 31 35 38 43 43 41 43 43 43 40 36 33 34 33 30 26 23 17
8 4 2 4 2 1 6 16 18 17 4 6 7 5 2 2 6 6 6 7 7 11 17 17 17 21 25 34 36 36 37 42 42 44 42 38 35 35 35 33 29 25 21 16
13 5 8 6 4 7 6 13 13 15 10 9 4 7 9 7 8 10 6 5 5 6 13 14 15 15 20 29 34 37 33 37 43 43 40 39 38 37 36 32 27 23 18 15
3 5 13 19 17 14 12 11 20 21 20 10 13 12 10 3 5 4 3 5 6 8 9 12 15 14 17 24 27 30 31 37 41 40 40 39 39 38 34 29 25 20 16 12
3 4 7 9 14 10 19 13 13 21 21 19 19 16 4 4 4 4 4 5 7 8 13 10 9 15 17 25 28 31 33 37 42 39 40 42 40 36 31 27 23 18 14 11
3 3 4 5 9 14 11 8 13 9 19 17 15 16 3 5 5 6 6 6 8 11 12 15 14 12 19 26 32 33 36 39 39 42 43 42 39 34 29 24 20 16 12 9
8 8 4 5 9 3 7 15 14 20 16 14 12 9 7 8 9 12 11 14 13 14 15 15 14 18 23 28 31 35 37 38 39 40 41 39 36 32 27 22 18 15 11 8
18 10 3 3 3 9 16 7 2 9 17 18 15 16 7 5 5 2 2 6 9 12 12 13 20 25 26 28 34 38 36 38 39 37 39 36 32 30 25 20 16 13 10 7
13 13 5 1 3 3 5 4 6 3 9 10 16 18 9 10 4 4 9 14 14 13 19 21 26 29 30 30 36 39 35 36 33 38 38 33 29 25 21 17 15 12 9 6
5 6 12 9 4 7 9 4 8 2 3 8 8 7 6 8 6 9 16 15 15 18 25 27 29 30 32 32 37 35 34 31 38 38 35 29 24 21 18 16 13 11 9 6
1 5 5 6 5 9 3 1 3 2 4 4 7 5 2 9 14 17 17 16 18 17 24 28 27 27 30 34 39 34 32 36 39 36 32 27 23 20 18 15 14 10 7 5
2 3 2 5 5 3 5 5 6 5 6 4 5 3 12 16 16 17 16 18 17 17 22 27 31 29 28 31 41 38 31 39 36 33 30 26 22 18 16 14 12 9 7 5
4 3 3 8 4 9 9 7 7 6 4 6 4 6 13 18 16 18 17 16 16 20 24 27 32 31 29 33 35 37 37 35 33 32 27 24 22 19 15 12 10 9 7 5
3 5 5 6 7 11 4 8 7 7 9 11 11 10 13 19 17 16 17 18 18 23 26 28 30 31 31 34 35 36 33 31 31 29 27 23 19 16 15 13 10 8 6 4
2 2 2 4 9 5 6 7 7 8 13 11 16 16 14 16 19 20 16 19 26 27 30 31 31 34 30 33 33 31 28 28 30 28 24 20 18 16 15 12 11 8 6 6
Wind_Direction
196 214 215 212 216 243 271 235 231 250 233 221 232 242 240 233 216 217 216 206 194 202 203 192 190 190 187 185 184 184 183 184 181 176 168 165 164 163 160 160 159 157 154 149
200 226 214 222 229 222 238 247 255 275 259 238 240 244 239 236 227 226 219 212 202 199 179 183 184 190 190 189 188 185 186 185 185 179 175 169 165 164 163 162 160 160 158 152
214 228 213 234 220 230 242 241 215 229 338 305 279 256 242 233 228 222 222 218 199 191 193 188 184 184 188 188 186 186 187 187 186 181 174 166 163 159 159 162 160 159 160 155
230 227 187 213 229 216 240 235 245 250 251 252 191 266 235 234 228 220 223 217 202 197 197 201 185 188 187 187 188 187 187 185 186 184 177 173 163 162 170 167 163 159 161 156
208 190 217 223 227 219 243 228 215 232 246 256 228 265 255 177 222 216 220 210 209 202 194 199 189 190 189 185 182 184 185 183 186 184 183 176 172 175 171 168 164 161 158 158
226 196 206 226 217 206 219 238 320 248 237 245 235 229 253 216 219 222 224 221 209 204 200 197 191 184 183 187 179 175 176 177 184 183 185 182 182 175 168 168 166 163 160 158
197 222 217 156 212 203 201 143 235 231 224 250 184 215 238 251 232 216 218 216 211 196 192 183 183 181 182 176 175 173 173 173 179 183 185 187 187 181 178 175 173 167 165 162
220 232 201 189 208 179 197 208 201 209 203 262 178 230 237 244 243 254 230 216 205 202 190 184 183 182 181 173 179 174 173 174 179 181 183 190 189 184 184 181 179 177 172 166
185 234 208 218 197 187 182 212 220 317 193 270 233 283 297 241 248 234 230 212 203 204 201 192 179 177 176 175 175 178 172 173 177 180 184 191 188 186 185 183 182 175 171 166
220 248 214 242 148 216 200 144 184 215 237 246 240 260 234 267 235 237 219 211 210 202 195 188 183 173 172 170 173 174 174 173 178 179 187 190 189 189 188 182 177 174 170 170
211 208 208 118 183 192 204 216 203 175 227 229 289 258 219 239 316 305 292 253 209 191 188 183 179 172 169 172 174 170 168 168 170 179 186 188 186 187 185 178 173 172 170 169
321 258 212 201 187 208 196 207 210 229 185 227 161 253 101 249 269 294 303 268 207 203 191 180 175 169 174 169 173 166 164 165 172 178 184 184 184 181 177 171 168 169 166 165
327 338 187 119 345 208 211 225 216 225 270 199 204 261 163 75 29 336 326 317 248 196 173 174 172 171 165 163 168 165 166 160 166 173 178 177 174 173 169 164 163 163 164 163
352 304 351 341 331 333 219 207 223 215 235 237 241 281 281 15 13 353 349 27 36 103 145 150 154 159 160 163 160 153 155 154 159 168 171 169 167 166 162 159 158 160 162 162
59 300 339 313 303 288 274 267 204 218 231 230 246 226 253 297 320 301 276 60 76 91 108 137 143 136 144 146 143 140 141 143 152 153 156 156 160 158 155 153 154 156 157 157
333 298 315 294 304 334 324 264 230 223 227 234 250 259 156 232 77 88 99 133 120 118 122 115 129 137 141 142 140 139 138 137 150 144 144 153 151 151 152 152 152 154 153 152
289 281 326 275 320 329 304 241 230 222 220 218 232 238 193 223 174 158 171 205 155 147 143 139 143 143 141 143 139 138 136 136 138 139 142 148 149 148 148 149 151 149 148 147
218 238 265 276 296 257 251 310 238 214 228 222 243 237 201 243 211 187 188 183 169 154 147 145 144 144 140 136 131 129 130 129 131 131 138 146 147 144 145 149 149 147 144 141
206 196 251 248 303 300 306 314 332 186 244 227 224 243 212 114 76 347 147 145 149 143 137 135 135 130 131 132 132 125 124 126 127 129 138 145 147 144 147 147 145 144 142 133
184 194 208 271 258 272 251 354 329 168 279 4 219 232 190 143 184 217 149 121 123 127 131 131 129 125 127 131 130 121 123 123 124 134 141 144 146 146 144 143 143 141 139 134
147 187 212 231 267 278 267 321 325 83 249 318 341 299 175 196 235 137 130 129 131 132 126 126 131 131 132 132 126 119 121 118 132 138 137 138 140 139 140 140 142 141 137 132
221 162 188 213 224 258 318 130 200 299 277 265 305 299 168 109 115 122 122 122 121 123 125 128 123 122 125 127 119 114 110 127 135 135 132 131 134 136 138 142 139 133 131 121
249 340 303 209 227 292 355 341 325 287 269 307 307 5 127 120 121 123 124 124 123 120 120 124 117 112 113 119 122 114 122 132 133 131 130 129 132 134 135 137 135 129 125 112
288 58 275 339 11 341 330 318 327 311 306 10 38 107 120 119 119 117 115 117 114 115 116 119 115 108 101 105 109 116 129 135 135 129 129 130 130 129 129 131 131 128 107 79
301 350 322 270 309 310 328 354 340 345 52 60 62 82 105 113 108 111 114 114 108 106 109 110 106 103 103 107 112 128 134 138 131 128 129 128 127 128 126 120 110 104 99 75
345 295 279 273 329 275 291 326 354 39 63 69 87 84 83 97 107 107 104 106 104 103 104 96 96 99 102 109 118 129 137 139 133 127 126 126 126 125 124 119 114 96 88 81
Height
750 749 737 743 745 745 745 750 750 750 747 747 746 743 737 738 739 736 737 747 749 752 757 762 767 773 777 783 788 792 797 803 809 814 818 826 831 836 839 843 846 848 852 855
747 729 732 735 742 745 746 746 748 749 745 748 741 736 731 729 729 728 728 733 743 748 754 757 763 768 773 778 783 789 794 799 805 811 816 822 828 835 839 842 845 849 852 855
727 726 729 733 735 741 742 740 749 752 753 750 741 730 725 716 721 721 721 723 729 738 747 746 757 763 768 774 779 783 789 795 802 808 815 821 828 834 838 841 844 848 852 855
725 720 730 732 728 735 740 739 738 743 749 745 741 724 715 710 713 715 712 715 718 726 733 737 741 754 760 764 773 780 785 791 798 804 811 815 821 828 834 839 843 847 852 855
714 719 724 732 722 731 730 736 741 742 739 744 738 733 706 704 709 700 694 699 703 712 717 728 734 739 748 758 762 772 780 787 793 801 806 812 818 826 832 839 843 847 851 855
714 719 721 718 726 731 731 740 741 737 739 727 722 733 689 697 679 684 686 689 694 699 709 718 726 734 744 757 762 766 773 783 790 797 804 808 814 822 830 837 842 846 850 854
721 721 718 716 728 729 733 745 746 744 734 712 711 718 685 670 664 668 675 677 683 692 699 709 718 725 735 745 754 763 770 779 786 794 800 807 812 818 825 832 839 844 848 853
712 718 712 711 707 723 727 725 743 740 726 717 712 690 672 661 661 668 665 669 675 679 685 695 706 716 727 735 749 753 763 773 781 788 797 805 811 817 822 828 836 842 847 852
713 708 695 696 699 705 723 722 711 725 726 721 702 691 668 662 661 657 658 663 665 668 674 682 689 701 718 729 737 749 757 767 777 785 793 803 809 814 820 826 834 842 848 852
698 704 696 689 696 699 698 705 723 723 715 698 696 698 667 661 652 652 658 658 657 660 667 677 688 692 703 715 732 744 752 757 770 781 789 799 807 813 819 825 833 840 846 850
704 701 693 693 694 698 705 703 701 707 708 694 689 684 669 652 656 658 656 652 648 647 656 667 678 687 697 711 724 734 745 756 767 775 786 795 803 811 818 824 832 839 845 849
721 691 690 692 680 679 680 686 690 692 689 690 712 680 659 660 660 658 657 653 643 644 651 657 668 680 696 702 716 721 735 747 759 771 783 793 801 809 817 823 831 838 843 848
731 707 685 690 685 682 681 679 679 682 695 682 682 675 663 660 660 657 652 651 646 640 650 662 672 678 686 697 712 721 732 738 754 765 778 789 799 809 816 823 830 837 842 846
733 713 707 700 694 698 682 677 687 684 680 673 674 672 654 659 657 656 658 653 651 647 649 657 671 679 690 700 707 714 732 740 748 762 777 787 797 807 817 824 830 836 841 844
742 738 725 720 705 691 688 672 669 676 666 672 659 667 660 656 653 655 664 662 662 660 665 669 673 683 695 704 712 720 733 738 749 763 775 786 796 808 817 824 830 836 840 843
747 746 730 719 690 688 684 674 666 662 664 663 659 662 661 659 663 667 672 669 668 671 669 682 689 689 695 703 712 722 730 737 752 765 774 787 798 809 817 825 830 835 839 842
752 744 732 717 692 686 685 669 664 662 656 655 665 649 650 656 657 666 665 668 665 670 676 680 692 698 702 706 711 722 731 740 754 764 775 788 799 809 818 825 831 835 839 842
744 743 738 727 706 702 660 650 644 645 639 647 646 642 643 643 646 652 650 659 664 670 676 685 692 702 707 711 717 725 736 743 757 766 780 792 801 809 817 826 831 835 838 841
730 740 740 731 702 687 659 646 645 647 638 633 638 633 641 653 654 656 657 661 668 676 682 689 694 698 709 716 724 727 740 750 760 772 782 794 804 810 819 826 831 834 838 841
724 731 739 724 710 680 654 650 653 640 645 641 630 628 641 652 660 657 659 666 676 683 686 691 697 705 715 723 727 731 746 754 766 775 785 797 806 814 820 825 830 834 838 841
729 734 733 728 720 690 660 656 652 649 645 657 647 637 642 641 634 647 658 668 673 679 687 698 705 710 718 726 729 739 750 760 770 781 789 799 809 813 820 826 831 835 837 841
715 727 728 724 716 712 662 650 648 657 656 652 649 644 640 648 647 654 664 672 678 687 690 700 706 715 720 727 733 745 756 769 776 785 793 801 809 816 821 827 832 834 837 839
713 710 704 705 693 671 676 675 670 669 662 651 650 647 648 654 660 664 671 678 684 690 701 708 711 721 728 733 736 750 767 773 782 789 797 803 812 820 822 827 831 834 836 838
715 716 711 707 686 694 686 680 675 670 662 653 650 652 653 660 667 674 680 689 694 702 708 716 719 727 737 742 751 758 771 778 787 793 800 807 814 820 824 828 832 834 834 836
722 726 720 711 695 695 687 686 682 676 663 663 662 664 666 666 676 682 691 696 701 710 720 724 729 737 746 753 759 768 777 786 793 798 806 810 816 821 825 829 831 832 834 836
732 729 725 710 708 710 701 694 687 683 672 676 674 677 682 682 684 690 700 703 703 717 727 734 741 746 756 763 769 779 788 794 797 800 805 812 818 823 826 826 830 833 834 836